Погода в Нордерштедте

Германия     53°42′22″N   9°59′49″E
темп.,
°C
ветер,
м/с
пор.,
м/с
влажн.,
%
обл.,
%
осадки,
мм/ч
давл.,
гПа
погр.,
м
16 апреля, пт
пт1623:00+2с397657 0.0 1030207
02:00+2с268264 0.0 1029127
05:000с249356 0.0 102872
08:00+3ссв248588 0.0 1028150
11:00+9св464690 0.0 10281219
14:00+9св5640100 0.0 10281377
17:00+9ссв4645100 0.0 10271362
20:00+6ссв366042 0.0 1027184
17 апреля, сб
сб1723:00+2с24696 0.0 102770
02:00+1ссз24755 0.0 102678
05:00+2ссз267482 0.0 1026144
08:00+4с267699 0.0 1025198
11:00+8ссв355390 0.0 1025633
14:00+8св3464100 0.0 1025573
17:00+9св456783 0.0 1024717
20:00+8св3878100 0.0 1024473
18 апреля, вс
вс1823:00+6ссв2882100 0.0 1024342
02:00+7св3983100 0.0 1024377
05:00+7св41081100 0.1 1023527
08:00+6всв379096 0.3 1023395
11:00+10всв3577100 0.0 1023671
14:00+11всв4471100 0.0 1023914
17:00+12всв3469100 0.0 1022975
20:00+9св4108252 0.0 1023474
19 апреля, пн
пн1923:00+5св399619 0.0 1023235
02:00+5св389799 0.0 1022190
05:00+5ссв3898100 0.0 1022222
08:00+6св3897100 2.9 1022257
11:00+10всв4582100 0.0 1021504
14:00+11всв3581100 0.0 1021398
17:00+14всв46658 0.0 10191015
20:00+9всв498727 0.4 1019291
20 апреля, вт
вт2023:00+6всв37965 0.0 1020139
02:00+5всв36915 0.0 1019106
05:00+4всв36912 0.0 1018111
08:00+6всв25801 0.0 1017153
11:00+13всв34555 0.0 1017868
14:00+15св324477 0.0 10152108
17:00+13ссв2352100 0.0 10141085
20:00+9всв37739 0.1 1013245